Vorticity
nan nan nan nan nan nan nan nan nan nan nan nan nan nan nan nan nan nan nan nan nan nan nan nan nan nan nan nan nan nan nan nan nan nan nan nan nan nan nan nan nan nan nan nan nan nan nan nan nan
nan -0 4 5 8 9 6 11 10 9 5 1 3 5 -1 8 15 11 11 9 0 6 6 7 6 6 7 7 7 6 5 6 6 7 9 8 7 8 7 8 7 6 6 5 5 5 5 5 nan
nan 8 9 4 6 9 11 8 5 6 7 4 5 7 13 6 2 9 11 5 10 10 8 7 7 6 7 6 6 6 5 5 5 6 4 9 8 8 8 7 7 7 7 6 5 4 3 4 nan
nan 7 5 10 7 9 8 7 7 9 9 13 8 6 15 11 11 16 8 3 8 3 8 7 7 7 7 7 6 6 5 5 5 6 7 10 11 7 6 7 8 7 5 5 4 4 3 4 nan
nan 9 3 5 7 9 6 6 15 11 3 11 10 9 9 11 15 7 5 8 6 7 7 4 5 7 7 6 6 5 6 7 7 5 4 6 6 6 9 7 5 5 5 4 3 3 3 4 nan
nan 7 6 5 9 5 3 9 7 7 10 9 4 7 8 6 7 6 6 5 6 8 8 8 4 2 6 6 7 6 5 6 5 3 3 4 5 6 7 7 5 4 5 4 3 2 3 4 nan
nan 3 9 2 5 5 10 9 6 7 4 8 8 2 3 4 7 10 4 8 9 5 6 9 7 1 3 3 6 6 5 5 5 2 4 3 6 8 8 6 4 5 5 3 3 3 4 3 nan
nan 2 6 11 11 8 6 10 8 2 4 4 6 7 7 9 5 5 4 3 3 7 7 8 6 3 3 5 4 5 6 4 3 3 2 3 8 7 6 5 6 5 4 4 4 4 5 5 nan
nan 10 9 10 6 4 8 0 6 12 6 6 14 13 8 11 3 4 5 4 4 4 6 4 4 7 7 6 3 4 3 1 1 2 4 7 8 8 5 6 7 4 4 4 4 4 4 5 nan
nan 13 12 4 4 -1 -1 9 13 4 2 11 15 12 9 5 4 4 1 5 7 7 6 3 5 5 7 6 4 3 1 3 3 5 6 7 5 10 11 7 5 6 5 7 6 7 7 5 nan
nan 11 10 10 5 4 2 -1 9 19 6 8 5 4 6 1 4 5 4 7 4 2 8 8 5 5 6 5 4 7 7 6 7 9 8 7 9 8 5 6 8 9 9 8 12 9 12 11 nan
nan 14 11 10 6 18 9 4 3 9 14 11 9 4 9 9 2 1 3 6 8 4 4 6 4 5 5 5 6 3 6 9 10 11 7 6 9 9 8 7 5 14 14 2 7 16 7 7 nan
nan 5 -2 11 17 22 8 7 10 8 16 10 6 8 1 -3 2 12 23 5 5 6 7 5 2 4 5 4 8 7 7 7 7 7 9 7 7 11 10 11 1 8 9 20 8 5 7 8 nan
nan 7 4 2 8 11 19 2 15 2 9 8 6 8 7 9 6 5 6 14 11 4 8 8 7 6 8 9 7 7 9 10 8 9 7 4 5 13 3 8 7 11 7 6 8 9 7 10 nan
nan 0 8 5 1 9 13 9 -9 1 13 6 8 3 8 6 9 13 2 9 8 10 9 5 4 8 8 9 8 10 9 10 9 6 10 9 5 9 4 4 9 4 8 5 8 5 10 8 nan
nan 8 6 9 10 11 -1 1 1 13 8 9 7 6 14 7 -2 4 9 14 5 7 8 6 10 9 4 5 6 7 6 7 13 6 7 6 16 5 3 2 11 5 11 9 10 5 8 6 nan
nan 6 11 9 9 3 5 12 16 12 11 3 4 7 4 0 8 12 8 5 9 10 8 5 10 12 7 4 3 4 9 12 7 12 10 8 10 -0 11 10 6 6 9 12 10 9 6 14 nan
nan 16 14 12 11 4 10 8 7 12 10 11 16 -2 5 8 9 7 8 1 9 10 6 6 9 10 9 6 8 8 4 8 7 12 9 10 9 7 6 7 6 8 7 10 4 10 6 8 nan
nan 3 13 12 12 8 1 11 21 13 5 1 0 10 12 1 6 7 11 14 6 5 4 6 9 6 6 6 3 9 13 7 8 9 6 6 7 8 5 9 8 8 8 6 7 7 9 9 nan
nan 7 9 12 13 12 9 3 9 11 10 10 4 12 7 2 5 8 8 8 8 7 6 7 5 5 4 5 8 8 10 7 10 3 8 12 8 7 6 6 8 9 10 8 6 7 8 11 nan
nan 10 5 8 6 1 2 3 7 19 19 3 3 7 8 16 11 6 6 5 19 -2 6 8 6 6 4 5 7 7 4 7 10 11 13 8 10 5 9 6 5 7 10 9 8 7 7 7 nan
nan 9 13 7 3 2 2 8 10 21 9 13 11 1 2 7 5 13 17 7 1 6 14 8 7 7 5 5 7 7 7 10 9 11 9 10 7 9 8 8 8 7 7 11 9 8 8 9 nan
nan 10 -1 7 5 6 4 3 11 14 23 18 3 5 4 6 8 6 11 15 1 16 8 7 8 6 6 7 7 5 4 10 9 8 9 9 10 9 6 10 8 7 8 7 10 8 6 8 nan
nan 9 16 15 7 7 14 2 10 13 4 3 16 17 13 9 1 4 9 9 17 16 10 9 8 6 8 8 6 7 8 1 6 9 10 10 8 7 10 8 6 7 10 6 8 6 8 6 nan
nan 5 8 10 11 9 12 10 18 17 14 7 2 -4 13 22 10 11 12 9 13 13 9 8 8 8 8 8 6 7 6 8 7 7 6 11 11 11 10 7 7 9 7 8 9 7 7 9 nan
nan 10 3 5 6 7 10 22 16 18 17 12 13 13 4 16 15 7 2 13 10 18 11 7 7 7 9 8 6 7 6 5 8 7 7 9 10 9 15 8 7 9 8 9 9 7 8 10 nan
nan 9 5 9 13 16 12 16 12 10 7 14 14 10 10 8 13 19 17 8 10 11 3 11 8 7 9 6 8 8 8 6 6 7 11 6 9 13 14 8 8 8 9 8 8 8 9 8 nan
nan 6 15 11 12 8 4 11 15 9 6 6 11 9 9 4 5 16 10 1 9 14 13 12 9 8 7 7 7 8 9 7 5 8 8 6 11 15 10 3 9 13 9 7 6 9 9 6 nan
nan 5 5 5 11 13 8 -0 12 15 10 10 10 9 7 7 12 9 14 14 7 6 12 18 4 6 7 8 9 8 9 8 7 7 8 8 3 7 9 8 6 10 9 11 8 6 11 10 nan
nan nan nan nan nan nan nan nan nan nan nan nan nan nan nan nan nan nan nan nan nan nan nan nan nan nan nan nan nan nan nan nan nan nan nan nan nan nan nan nan nan nan nan nan nan nan nan nan nan
CAPE
692 550 977 1073 576 695 92 127 217 227 204 237 496 525 449 442 735 332 48 118 350 214 219 360 957 680 879 855 827 619 353 1395 1572 1502 1550 1417 1151 1478 1556 1560 1600 1810 1572 1482 1542 2232 2152 2091 2074
911 1208 806 37 341 27 78 79 53 178 167 265 290 369 369 136 251 60 99 126 372 160 327 445 1516 1573 1047 886 675 395 639 599 860 1191 1300 1250 1390 1504 1388 1439 1068 1631 1758 1603 2038 1832 1823 1645 1519
970 1571 1004 0 12 57 83 70 51 80 179 209 154 118 172 22 46 264 311 310 199 470 525 279 1014 1172 1118 1049 1053 910 889 707 735 639 579 1077 1351 1407 1441 1359 1513 1622 2126 2565 1893 2154 2145 2189 2235
711 663 582 365 116 96 51 0 17 57 212 102 86 26 40 89 113 292 201 217 239 247 209 474 721 574 934 817 709 657 456 508 584 678 506 481 996 1602 1876 1891 1874 1955 2097 2179 2076 1957 1990 1760 1443
577 740 75 68 114 75 54 9 23 37 24 55 25 108 84 246 176 247 325 188 156 175 36 17 251 307 213 758 870 762 858 837 760 678 451 782 917 904 1466 1879 1944 1918 1794 1610 1792 1920 1208 966 1210
714 488 25 14 16 46 26 21 15 5 7 0 6 20 108 126 199 132 155 172 36 14 6 43 149 282 362 436 792 910 736 375 467 363 290 369 298 597 1254 1697 1724 1610 1526 1595 1634 1392 655 739 1406
360 339 47 27 10 58 24 20 0 9 28 6 0 4 185 128 183 108 62 32 15 0 0 8 29 207 116 395 692 748 683 369 238 264 377 529 542 672 1610 1898 1863 1724 1550 1388 1208 899 714 944 1301
473 207 129 47 104 55 8 2 5 26 4 30 0 6 93 328 162 180 133 1 4 1 0 16 80 45 96 105 461 529 498 335 138 109 261 712 1403 1645 1423 1855 1421 1125 949 1080 1253 1187 1197 1283 1708
175 154 435 158 215 43 8 14 2 0 4 49 48 7 0 186 185 158 4 0 7 0 0 2 68 53 93 111 211 266 231 215 183 252 601 810 1275 1285 1189 1706 1379 1148 1151 1247 1235 1680 2109 2248 2583
233 629 251 60 184 112 92 29 0 28 31 42 15 0 0 270 227 44 12 25 8 0 0 38 125 79 118 286 566 295 179 283 679 1027 1248 682 927 921 1577 1460 1302 1247 1454 1694 2175 2498 2679 2343 1620
343 426 0 1 27 138 138 65 77 51 24 40 0 0 4 55 94 56 37 59 82 26 0 15 137 220 302 542 332 932 1239 1024 1147 1373 943 493 807 957 275 790 851 1365 1784 1332 1700 1912 1941 1647 1695
411 404 335 0 36 136 139 91 36 51 32 6 4 6 31 76 59 88 180 343 219 119 14 0 44 331 178 1112 837 670 944 1275 1491 1373 928 1576 2047 1121 1283 1418 1862 900 1333 1883 1374 1422 2228 2046 1612
369 386 358 488 762 325 102 140 88 55 32 13 11 17 66 111 124 106 210 308 364 375 266 157 494 1254 971 1468 1332 1144 1042 688 852 1006 1554 825 1728 1914 680 1166 0 68 648 1854 717 2292 2390 2054 2193
315 94 17 36 471 159 109 79 96 55 50 26 27 24 55 52 67 43 113 98 502 327 389 250 967 991 820 640 1200 744 943 532 374 751 1300 2490 2287 1678 1274 497 482 116 956 2884 3028 2205 2890 2516 1281
188 73 45 12 172 219 143 153 56 79 64 45 31 97 142 50 48 140 175 121 215 513 1014 870 500 882 1832 1692 511 881 193 365 1145 905 1709 2332 1070 560 28 91 245 2595 3304 3023 2895 2320 2592 1694 1200
32 275 224 93 58 172 193 95 3 182 99 62 38 41 191 230 320 128 111 71 318 245 1084 636 437 649 1064 1251 2060 1334 1041 404 636 1043 1546 1628 1132 697 451 898 2190 2715 3154 2981 3055 2012 1979 1186 741
11 133 302 336 65 83 8 0 96 200 103 95 82 110 142 213 373 375 193 133 65 619 1185 612 825 711 969 2258 2014 747 1133 1544 2936 1293 1315 2925 2100 2293 2096 2896 2865 3023 2744 2928 1287 962 2667 2058 156
3 12 295 315 212 345 43 53 43 11 390 149 43 92 233 105 156 543 432 361 312 872 1351 1381 593 1481 1894 2210 2261 379 1082 1424 348 1974 2310 1698 2677 1976 3093 3044 2773 2536 2466 3001 3608 3942 3243 3149 2555
53 52 360 408 474 610 56 2 40 135 149 170 16 33 232 63 308 448 287 550 862 1145 1420 1516 1801 2051 1857 1836 1843 1114 720 2106 1239 1326 3009 2708 1395 3411 2958 2889 2774 2250 2419 3333 3108 3398 3199 2638 2698
245 192 231 671 491 354 177 135 95 192 416 128 1 85 139 276 68 87 465 729 718 1310 1565 1803 2134 2615 2413 2444 1879 1871 845 2424 2464 1555 1176 2601 2439 3164 3219 3188 3243 2793 2726 2324 2483 3700 3354 2515 2775
97 57 445 422 571 17 107 0 14 93 335 101 253 209 190 285 1 343 371 391 897 1563 1801 2105 2594 2499 2416 3024 2311 2379 2706 378 705 1080 1791 2672 2912 2959 2989 3066 2809 3173 3177 2681 3262 3432 3679 2556 2548
2 6 59 345 359 41 38 0 0 2 144 162 189 93 91 90 140 219 839 699 261 611 1896 2353 2612 2685 2371 3197 1475 2908 2515 2282 2761 2499 1405 2636 2926 2821 2935 3215 1840 2536 2816 2979 3009 2822 3475 3260 2650
10 23 9 39 182 22 0 96 67 79 114 102 362 118 0 46 32 193 389 790 472 1390 1894 2211 2525 2822 2711 2717 3314 2571 1981 1281 772 844 1027 3547 3382 3182 2412 2763 2038 2413 2623 2852 3278 3119 3407 3275 3310
0 0 3 16 91 148 76 70 146 388 49 69 62 259 215 199 321 97 79 465 1073 1432 1840 2200 2386 2553 3064 2764 2792 2957 2650 820 429 627 1651 1901 2538 2664 3244 2745 2790 3269 2758 2575 2918 3453 3048 3458 3190
0 0 148 343 152 212 192 85 328 158 229 5 68 267 273 598 370 131 106 155 521 1361 1817 2448 2616 2571 2854 2720 2594 3095 2926 2626 2491 1855 2079 2636 2131 2059 2530 3466 3411 3337 2640 2593 2412 3313 3356 3214 3166
38 19 32 214 147 53 231 120 296 130 248 84 156 541 454 283 591 174 253 499 455 1046 1883 2248 2695 2653 2501 2672 2786 2844 3107 2397 2375 1821 2132 1443 2217 469 2583 2817 2894 3437 2642 3364 3166 3090 2185 1750 2714
103 42 66 25 0 187 233 87 37 0 0 0 15 174 93 447 834 682 267 497 347 469 1658 2313 2810 2709 2370 2369 2643 2953 2841 2677 1962 2352 3156 2838 385 1626 1687 2073 2471 3028 3589 2874 2610 2549 2579 3037 2822
0 0 49 23 3 165 183 89 103 71 22 0 57 21 160 470 636 932 582 419 94 0 1249 1988 2865 2903 2573 2246 2483 2564 2423 2683 2737 3273 2056 1720 1889 1267 753 105 717 2996 2131 2433 3145 2837 2275 2422 2627
0 0 0 16 60 197 262 244 262 197 28 1 71 441 436 345 522 624 599 640 97 450 229 922 2415 2815 2757 2422 2110 2282 2158 2369 2625 2500 2999 1742 2725 84 569 0 16 2541 2118 2396 2891 2940 2196 2354 2902
0 44 0 6 112 169 301 91 72 28 49 201 247 208 204 358 510 544 741 1029 1677 393 344 24 85 2177 2238 2398 1857 2466 2236 2103 2291 2437 2381 3148 3137 2449 1307 944 1870 2710 2773 2688 2310 2398 2229 2099 2015